Location: *
(43.6428°N, 11.5461°E)
Time: 21:23:41
(UTC+00:00)

FALCON 9 DEB - Pass Details

Date: 21 October 2019
Orbit: 430 x 445 km, 53.0° (Epoch: 17 November)

Event Time Altitude Azimuth Distance (km) Brightness Sun altitude
Rises 16:46:12 0° 307° (NW) 2,416 7.6 -5.2°
Reaches altitude 10° 16:48:32 10° 320° (NW) 1,549 6.4 -5.6°
Maximum altitude 16:51:34 27° 20° (NNE) 876 4.4 -6.2°
Drops below altitude 10° 16:54:36 10° 81° (E) 1,553 5.2 -6.7°
Enters shadow 16:54:52 - 83° (E) 1,647 5.3 -6.8°
